FW2498 Weather Reports


Display with metric or nautical units.
time (UTC)temp
F
wind
direction
speed
MPH
gust
MPH
rain 1hr
in
rain 24hr
in
rain mn
in
humidity
%
barometer
mb
20260901231526 80 90 11.0 16.0 0.00 0.00 0.00 33 1010.6
20260901230034 79 77 11.0 24.0 0.00 0.00 0.00 33 1010.7
20260901224523 80 85 11.0 19.0 0.00 0.00 0.00 33 1010.8
20260901223021 80 96 13.0 24.0 0.00 0.00 0.00 32 1010.9
20260901221530 80 91 12.0 20.0 0.00 0.00 0.00 32 1011.0
20260901220045 79 67 10.0 19.0 0.00 0.00 0.00 32 1011.1
20260901214518 80 76 17.0 21.0 0.00 0.00 0.00 31 1011.1
20260901213035 80 80 13.0 23.0 0.00 0.00 0.00 32 1011.4
20260901211513 80 95 10.0 23.0 0.00 0.00 0.00 31 1011.6
20260901210011 80 108 7.0 16.0 0.00 0.00 0.00 32 1011.5
20260901204508 80 96 9.0 16.0 0.00 0.00 0.00 32 1011.7
20260901203015 80 73 14.0 22.0 0.00 0.00 0.00 33 1011.8
20260901201502 79 92 11.0 16.0 0.00 0.00 0.00 34 1012.0
20260901200059 79 107 10.0 19.0 0.00 0.00 0.00 35 1012.2
20260901194556 78 112 12.0 17.0 0.00 0.00 0.00 35 1012.3
20260901193107 77 98 11.0 17.0 0.00 0.00 0.00 36 1012.6
20260901191551 77 93 7.0 19.0 0.00 0.00 0.00 35 1012.8
20260901190053 77 108 14.0 18.0 0.00 0.00 0.00 36 1012.9
20260901184549 78 118 13.0 22.0 0.00 0.00 0.00 36 1013.0
20260901183050 78 154 13.0 22.0 0.00 0.00 0.00 36 1013.3
20260901181544 78 114 13.0 19.0 0.00 0.00 0.00 36 1013.5
20260901180040 77 87 12.0 18.0 0.00 0.00 0.00 36 1013.5
20260901174535 77 119 8.0 16.0 0.00 0.00 0.00 37 1013.7
20260901173047 75 118 5.0 14.0 0.00 0.00 0.00 39 1013.9
20260901171528 74 86 6.0 14.0 0.00 0.00 0.00 39 1013.8
20260901170026 73 55 4.0 10.0 0.00 0.00 0.00 41 1013.7
20260901164526 73 99 7.0 14.0 0.00 0.00 0.00 44 1014.0
20260901163023 73 139 8.0 14.0 0.00 0.00 0.00 43 1014.1
20260901161521 72 101 10.0 17.0 0.00 0.00 0.00 45 1014.2
20260901160022 70 67 4.0 7.0 0.00 0.00 0.00 51 1014.1
20260901154512 67 96 4.0 6.0 0.00 0.00 0.00 54 1014.3
20260901153009 66 78 3.0 6.0 0.00 0.00 0.00 56 1014.4
20260901151506 65 82 4.0 7.0 0.00 0.00 0.00 56 1014.3
20260901150002 63 44 3.0 5.0 0.00 0.00 0.00 58 1014.2
20260901144559 62 38 2.0 5.0 0.00 0.00 0.00 58 1014.2
20260901143102 62 35 3.0 7.0 0.00 0.00 0.00 58 1014.2
20260901141602 62 349 0.0 3.0 0.00 0.00 0.00 59 1014.2
20260901140103 62 328 2.0 4.0 0.00 0.00 0.00 61 1014.2
20260901134502 60 250 0.0 2.0 0.00 0.00 0.00 63 1014.3
20260901133100 59 254 0.0 1.0 0.00 0.00 0.00 63 1014.3
20260901131556 58 254 0.0 2.0 0.00 0.00 0.00 64 1014.3
20260901130052 57 254 1.0 4.0 0.00 0.00 0.00 64 1014.2
20260901124549 57 256 2.0 4.0 0.00 0.00 0.00 64 1014.2
20260901123046 57 254 1.0 2.0 0.00 0.00 0.00 64 1014.2
20260901121544 57 254 0.0 2.0 0.00 0.00 0.00 64 1014.1
20260901120053 57 254 2.0 3.0 0.00 0.00 0.00 64 1014.0
20260901114542 57 245 1.0 3.0 0.00 0.00 0.00 63 1014.1
20260901113047 57 245 2.0 3.0 0.00 0.00 0.00 64 1014.2
20260901111548 56 245 2.0 4.0 0.00 0.00 0.00 64 1014.2
20260901110046 56 250 1.0 3.0 0.00 0.00 0.00 64 1014.2
20260901104538 55 250 1.0 2.0 0.00 0.00 0.00 64 1014.2
20260901103038 56 250 1.0 3.0 0.00 0.00 0.00 63 1014.2
20260901101537 56 250 4.0 5.0 0.00 0.00 0.00 63 1014.1
20260901100036 56 250 1.0 3.0 0.00 0.00 0.00 63 1014.0
20260901094534 56 250 1.0 3.0 0.00 0.00 0.00 63 1014.1
20260901093032 56 250 2.0 3.0 0.00 0.00 0.00 63 1014.1
20260901091530 57 250 2.0 3.0 0.00 0.00 0.00 61 1014.2
20260901090029 57 250 1.0 4.0 0.00 0.00 0.00 62 1014.1
20260901084528 56 250 4.0 6.0 0.00 0.00 0.00 63 1014.4
20260901083027 57 250 4.0 6.0 0.00 0.00 0.00 62 1014.4
20260901081524 57 250 5.0 6.0 0.00 0.00 0.00 62 1014.5
20260901080023 57 250 5.0 9.0 0.00 0.00 0.00 63 1014.4
20260901074519 57 254 3.0 5.0 0.00 0.00 0.00 63 1014.3
20260901073018 57 250 2.0 3.0 0.00 0.00 0.00 63 1014.2
20260901071522 58 250 4.0 5.0 0.00 0.00 0.00 60 1014.5
20260901070022 58 263 2.0 4.0 0.00 0.00 0.00 61 1014.2
20260901064515 58 263 3.0 5.0 0.00 0.00 0.00 60 1014.4
20260901063010 59 271 2.0 4.0 0.00 0.00 0.00 60 1014.1
20260901061508 58 271 1.0 4.0 0.00 0.00 0.00 60 1014.1
20260901060005 57 271 2.0 3.0 0.00 0.00 0.00 60 1014.0
20260901054511 58 271 2.0 4.0 0.00 0.00 0.00 58 1013.7
20260901053004 60 271 0.0 3.0 0.00 0.00 0.00 56 1013.6
20260901051504 61 271 3.0 4.0 0.00 0.00 0.00 55 1013.7
20260901050004 61 301 0.0 0.0 0.00 0.00 0.00 53 1013.6
20260901044502 62 301 0.0 0.0 0.00 0.00 0.00 51 1013.5
20260901043002 66 300 2.0 4.0 0.00 0.00 0.00 47 1013.7
20260901041502 66 289 3.0 7.0 0.00 0.00 0.00 48 1013.8
20260901040001 66 287 8.0 10.0 0.00 0.00 0.00 47 1013.9
20260901034612 65 277 8.0 9.0 0.00 0.00 0.00 48 1014.0
20260901033101 66 278 5.0 9.0 0.00 0.00 0.00 47 1013.7
20260901031558 66 291 9.0 10.0 0.00 0.00 0.00 46 1013.5
20260901030057 68 277 8.0 10.0 0.00 0.00 0.00 45 1013.4
20260901024556 68 271 9.0 12.0 0.00 0.00 0.00 45 1013.4
20260901023105 68 275 10.0 12.0 0.00 0.00 0.00 45 1013.3
20260901021556 69 264 9.0 11.0 0.00 0.00 0.00 43 1013.1
20260901020052 70 263 8.0 11.0 0.00 0.00 0.00 41 1012.8
20260901014557 72 264 9.0 14.0 0.00 0.00 0.00 40 1012.5
20260901013049 73 270 13.0 19.0 0.00 0.00 0.00 38 1012.3
20260901011547 74 269 13.0 20.0 0.00 0.00 0.00 37 1012.1
20260901010047 75 268 15.0 20.0 0.00 0.00 0.00 36 1012.1
20260901004548 76 273 15.0 22.0 0.00 0.00 0.00 36 1012.0
20260901003044 76 258 21.0 26.0 0.00 0.00 0.00 35 1011.9
20260901001542 77 304 14.0 26.0 0.00 0.00 0.00 35 1011.9
20260901000045 76 283 22.0 28.0 0.00 0.00 0.00 35 1011.8
20260831234544 77 294 22.0 32.0 0.00 0.00 0.00 34 1011.8
20260831233038 77 267 22.0 31.0 0.00 0.00 0.00 34 1011.7
20260831231537 77 268 22.0 35.0 0.00 0.00 0.00 34 1011.8